Weather History for CYTZ - November, 2013

Change the Weather History Date:

Saturday, November 9, 2013

  Actual Average Record
Temperature  
Mean Temperature 44 °F -  
Max Temperature 50 °F 42 °F 59 °F (2006)
Min Temperature 37 °F 32 °F 28 °F (2003)
Degree Days  
Heating Degree Days 22    
Moisture  
Dew Point 36 °F    
Average Humidity 74    
Maximum Humidity 93    
Minimum Humidity 58    
Precipitation  
Precipitation 0.01 in 0.09 in - ()
Sea Level Pressure  
Sea Level Pressure 29.98 in    
Wind  
Wind Speed 9 mph ()    
Max Wind Speed 24 mph    
Max Gust Speed 33 mph    
Visibility 9.1 miles    
Events Rain    
Averages and records for this station are not official NWS values.
T = Trace of Precipitation, MM = Missing Value Source: Averaged Metar Reports

Daily Weather History Graph

Daily Weather History Graph

Search for Another Location

Airport or City:

Trip Planner

Search our weather history database for the weather conditions in past years. The results will help you decide how hot, cold, wet, or windy it might be!

Date:

Astronomy

Nov. 09, 2013 Rise Set
Actual Time 7:04 AM EST 4:58 PM EST
Civil Twilight 6:33 AM EST 5:28 PM EST
Nautical Twilight 5:59 AM EST 6:03 PM EST
Astronomical Twilight 5:25 AM EST 6:36 PM EST
Moon 12:38 PM EST (11/9) 11:29 PM EST (11/9)
Length of Visible Light 10h 55m
Length of Day
9h 54m
Waxing Crescent, 44% of the Moon is Illuminated
Nov 9
Waxing Crescent
Nov 10
First Quarter
Nov 17
Full
Nov 25
Last Quarter
Dec 2
New

Hourly Weather History & Observations

Time (EST) Temp. Windchill Dew Point Humidity Pressure Visibility Wind Dir Wind Speed Gust Speed Precip Events Conditions
12:00 AM 41.0 °F 35.2 °F 32.0 °F 70% 30.22 in 9.0 mi West 9.2 mph - N/A   Overcast
1:00 AM 39 °F - 31 °F 64% 30.22 in 10 mi WSW 11.5 mph - -  
1:00 AM 39.2 °F 32.0 °F 32.0 °F 75% 30.22 in 9.0 mi WSW 11.5 mph - N/A   Mostly Cloudy
2:00 AM 39.2 °F 33.0 °F 28.4 °F 65% 30.22 in 9.0 mi West 9.2 mph - N/A   Scattered Clouds
3:00 AM 39.2 °F 35.9 °F 28.4 °F 65% 30.21 in 9.0 mi West 4.6 mph - N/A   Mostly Cloudy
4:00 AM 39.2 °F 37.0 °F 28.4 °F 65% 30.19 in 9.0 mi WSW 3.5 mph - N/A   Overcast
5:00 AM 39.2 °F - 26.6 °F 61% 30.18 in 9.0 mi Calm Calm - N/A   Overcast
6:00 AM 39.2 °F 35.9 °F 30.2 °F 70% 30.18 in 9.0 mi WSW 4.6 mph - N/A   Overcast
7:00 AM 42 °F - 34 °F 64% 30.17 in 10 mi SSW 11.5 mph - - Rain Light Rain
7:00 AM 41.0 °F 33.1 °F 33.8 °F 76% 30.17 in 9.0 mi SW 15.0 mph - N/A Rain Light Rain
7:48 AM 39.2 °F 32.0 °F 33.8 °F 81% 30.17 in 9.0 mi SSW 11.5 mph - N/A Rain Light Rain
8:00 AM 39.2 °F 32.5 °F 33.8 °F 81% 30.17 in 9.0 mi SSW 10.4 mph - N/A Rain Light Rain
8:21 AM 41.0 °F 35.2 °F 35.6 °F 81% 30.17 in 9.0 mi South 9.2 mph - N/A   Overcast
8:37 AM 41.0 °F 38.0 °F 35.6 °F 81% 30.14 in 9.0 mi SE 4.6 mph - N/A   Overcast
9:00 AM 41.0 °F 34.7 °F 35.6 °F 81% 30.10 in 9.0 mi ESE 10.4 mph - N/A   Mostly Cloudy
10:00 AM 42.8 °F 36.6 °F 37.4 °F 81% 30.08 in 9.0 mi SE 11.5 mph - N/A   Overcast
11:00 AM 44.6 °F 37.8 °F 37.4 °F 76% 30.01 in 9.0 mi SE 15.0 mph 20.7 mph N/A   Mostly Cloudy
12:00 PM 44.6 °F 37.8 °F 35.6 °F 71% 29.96 in 9.0 mi SSE 15.0 mph 23.0 mph N/A   Overcast
1:00 PM 46 °F - 36 °F 58% 29.91 in 10 mi SSE 12.7 mph - -   Overcast
1:00 PM 46.4 °F 41.1 °F 35.6 °F 66% 29.90 in 9.0 mi SSE 11.5 mph 17.3 mph N/A   Overcast
2:00 PM 46.4 °F 41.5 °F 37.4 °F 71% 29.87 in 9.0 mi South 10.4 mph - N/A   Overcast
3:00 PM 48.2 °F - 39.2 °F 71% 29.84 in 9.0 mi South 8.1 mph - N/A   Overcast
4:00 PM 48.2 °F - 39.2 °F 71% 29.83 in 9.0 mi South 9.2 mph - N/A   Overcast
5:00 PM 48.2 °F - 39.2 °F 71% 29.81 in 9.0 mi SSW 10.4 mph - N/A   Overcast
6:00 PM 48.2 °F - 39.2 °F 71% 29.80 in 9.0 mi SSW 12.7 mph - N/A   Overcast
6:54 PM 48.2 °F - 41.0 °F 76% 29.79 in 9.0 mi SSW 12.7 mph - N/A Rain Light Rain
7:00 PM 47 °F - 41 °F 74% 29.79 in 10 mi SSW 11.5 mph - - Rain Light Rain
7:00 PM 48.2 °F - 41.0 °F 76% 29.79 in 9.0 mi SSW 11.5 mph - N/A Rain Light Rain
7:17 PM 48.2 °F - 41.0 °F 76% 29.79 in 9.0 mi SSW 10.4 mph - N/A   Overcast
7:22 PM 46.4 °F 41.9 °F 42.8 °F 87% 29.79 in 9.0 mi SSW 9.2 mph - N/A Rain Light Rain
8:00 PM 46.4 °F 41.9 °F 42.8 °F 87% 29.77 in 9.0 mi WSW 9.2 mph - N/A Rain Light Rain
8:22 PM 44.6 °F 40.2 °F 42.8 °F 93% 29.77 in 9.0 mi West 8.1 mph - N/A   Overcast
8:44 PM 48.2 °F - 42.8 °F 82% 29.78 in 9.0 mi West 19.6 mph 31.1 mph N/A   Overcast
9:00 PM 50.0 °F - 42.8 °F 76% 29.77 in 9.0 mi West 24.2 mph 33.4 mph N/A   Overcast
10:00 PM 50.0 °F - 41.0 °F 71% 29.77 in 9.0 mi West 17.3 mph - N/A   Overcast
11:00 PM 50.0 °F - 39.2 °F 66% 29.76 in 9.0 mi West 17.3 mph 28.8 mph N/A   Overcast